Change the Weather History Date:

Saturday, July 26, 2014

  Actual Average Record
Temperature  
Mean Temperature 63 °F 62 °F  
Max Temperature 86 °F 82 °F 93 °F (1983)
Min Temperature 40 °F 42 °F 31 °F (1977)
Degree Days  
Heating Degree Days 2 4  
Month to date heating degree days 14 122  
Since 1 June heating degree days 224 432  
Since 1 July heating degree days 14 122  
Cooling Degree Days 0 1  
Month to date cooling degree days 71 14  
Year to date cooling degree days 72 15  
Since 1 June cooling degree days 72 15  
Growing Degree Days 12 (Base 50)    
Moisture  
Dew Point 35 °F    
Average Humidity 45    
Maximum Humidity 76    
Minimum Humidity 13    
Precipitation  
Precipitation 0.00 in - 0.78 in (1938)
Month to date precipitation 0.43  
Year to date precipitation 12.85  
Sea Level Pressure  
Sea Level Pressure 30.09 in    
Wind  
Wind Speed 4 mph (SSW)    
Max Wind Speed 14 mph    
Max Gust Speed 19 mph    
Visibility 10 miles    
Events      
T = Trace of Precipitation, MM = Missing Value Source: NWS Daily Summary

Daily Weather History Graph

Daily Weather History Graph

Search for Another Location

Airport or City:

Trip Planner

Search our weather history database for the weather conditions in past years. The results will help you decide how hot, cold, wet, or windy it might be!

Date:

Astronomy

Jul. 26, 2014 Rise Set
Actual Time 5:55 AM PDT 8:16 PM PDT
Civil Twilight 5:25 AM PDT 8:46 PM PDT
Nautical Twilight 4:48 AM PDT 9:23 PM PDT
Astronomical Twilight 4:07 AM PDT 10:04 PM PDT
Moon 5:52 AM PDT (7/26) 7:55 PM PDT (7/26)
Length of Visible Light 15h 21m
Length of Day
14h 20m
Waning Crescent, 0% of the Moon is Illuminated
Jul 26
Waning Crescent
Jul 26
New
Aug 3
First Quarter
Aug 10
Full
Aug 17
Last Quarter

Hourly Weather History & Observations

Time (PDT) Temp. Windchill Dew Point Humidity Pressure Visibility Wind Dir Wind Speed Gust Speed Precip Events Conditions
12:53 AM 51.1 °F - 37.9 °F 61% 30.06 in 10.0 mi SSW 3.5 mph - N/A   Clear
1:53 AM 48.9 °F - 37.0 °F 64% 30.07 in 10.0 mi South 4.6 mph - N/A   Clear
2:53 AM 46.0 °F 44.8 °F 37.0 °F 71% 30.07 in 10.0 mi South 3.5 mph - N/A   Clear
3:53 AM 45.0 °F - 36.0 °F 71% 30.07 in 10.0 mi Calm Calm - N/A   Clear
4:53 AM 43.0 °F 41.3 °F 35.1 °F 74% 30.09 in 10.0 mi South 3.5 mph - N/A   Clear
6:53 AM 41.0 °F 38.0 °F 33.1 °F 73% 30.13 in 10.0 mi South 4.6 mph - N/A   Clear
8:53 AM 64.9 °F - 32.0 °F 29% 30.10 in 10.0 mi Calm Calm - N/A   Clear
10:53 AM 75.9 °F - 37.9 °F 25% 30.09 in 10.0 mi Variable 4.6 mph - N/A   Clear
11:53 AM 78.1 °F - 36.0 °F 22% 30.10 in 10.0 mi NNE 9.2 mph - N/A   Clear
12:53 PM 81.0 °F - 32.0 °F 17% 30.09 in 10.0 mi NNE 8.1 mph 17.3 mph N/A   Clear
1:53 PM 82.0 °F - 30.0 °F 15% 30.09 in 10.0 mi NNE 11.5 mph - N/A   Clear
2:53 PM 84.0 °F - 32.0 °F 15% 30.09 in 10.0 mi Variable 3.5 mph - N/A   Clear
3:53 PM 82.9 °F - 26.1 °F 13% 30.09 in 10.0 mi SSW 5.8 mph - N/A   Clear
4:53 PM 82.0 °F - 30.0 °F 15% 30.09 in 10.0 mi SW 9.2 mph - N/A   Clear
5:53 PM 81.0 °F - 32.0 °F 17% 30.09 in 10.0 mi SSW 6.9 mph - N/A   Clear
6:53 PM 80.1 °F - 33.1 °F 18% 30.09 in 10.0 mi SSW 5.8 mph - N/A   Clear
7:53 PM 75.0 °F - 35.1 °F 23% 30.10 in 10.0 mi Calm Calm - N/A   Clear
8:53 PM 68.0 °F - 37.0 °F 32% 30.10 in 10.0 mi Calm Calm - N/A   Clear
9:53 PM 63.0 °F - 39.0 °F 41% 30.11 in 10.0 mi SSW 3.5 mph - N/A   Clear
10:53 PM 60.1 °F - 37.9 °F 44% 30.11 in 10.0 mi South 3.5 mph - N/A   Clear
11:53 PM 57.0 °F - 39.0 °F 51% 30.12 in 10.0 mi Calm Calm - N/A   Clear